iso_date,epoch_date,Year,Hour,Min,DOY,POS_DOY,Lat,Lon,BP,Ts,Ta,has_bp,has_ts,has_ta,BuoyID,Buoy_Type,Buoy_Owner,Logistics,Hemisphere
2018-06-02T00:00:00Z,1527897600,2018,0,0,153.0,153.0,59.6924,-22.2332,-999.00,8.84,-999.0,no,yes,no,300234065513810,SVPVHI,AOML,UNKNOWN,North
2018-06-02T00:30:14Z,1527899414,2018,0,30,153.021,153.021,59.6896,-22.2318,-999.00,8.84,-999.0,no,yes,no,300234065513810,SVPVHI,AOML,UNKNOWN,North
2018-06-02T01:00:28Z,1527901229,2018,1,0,153.042,153.042,59.6866,-22.2314,-999.00,8.84,-999.0,no,yes,no,300234065513810,SVPVHI,AOML,UNKNOWN,North
2018-06-02T01:29:16Z,1527902957,2018,1,30,153.062,153.062,59.6836,-22.2324,-999.00,8.82,-999.0,no,yes,no,300234065513810,SVPVHI,AOML,UNKNOWN,North
2018-06-02T01:59:31Z,1527904771,2018,2,0,153.083,153.083,59.681,-22.234,-999.00,8.8,-999.0,no,yes,no,300234065513810,SVPVHI,AOML,UNKNOWN,North
2018-06-02T02:29:45Z,1527906586,2018,2,30,153.104,153.104,59.6786,-22.2354,-999.00,8.77,-999.0,no,yes,no,300234065513810,SVPVHI,AOML,UNKNOWN,North
2018-06-02T03:00:00Z,1527908400,2018,3,0,153.125,153.125,59.6764,-22.2368,-999.00,8.76,-999.0,no,yes,no,300234065513810,SVPVHI,AOML,UNKNOWN,North
2018-06-02T03:30:14Z,1527910214,2018,3,30,153.146,153.146,59.6744,-22.2382,-999.00,8.75,-999.0,no,yes,no,300234065513810,SVPVHI,AOML,UNKNOWN,North
2018-06-02T04:00:28Z,1527912029,2018,4,0,153.167,153.167,59.673,-22.2402,-999.00,8.73,-999.0,no,yes,no,300234065513810,SVPVHI,AOML,UNKNOWN,North
2018-06-02T04:30:43Z,1527913843,2018,4,30,153.188,153.188,59.672,-22.2426,-999.00,8.72,-999.0,no,yes,no,300234065513810,SVPVHI,AOML,UNKNOWN,North
2018-06-02T04:59:31Z,1527915571,2018,5,0,153.208,153.208,59.6718,-22.2444,-999.00,8.7,-999.0,no,yes,no,300234065513810,SVPVHI,AOML,UNKNOWN,North
2018-06-02T05:29:45Z,1527917386,2018,5,30,153.229,153.229,59.6716,-22.2458,-999.00,8.68,-999.0,no,yes,no,300234065513810,SVPVHI,AOML,UNKNOWN,North
2018-06-02T06:00:00Z,1527919200,2018,6,0,153.25,153.25,59.6718,-22.2474,-999.00,8.64,-999.0,no,yes,no,300234065513810,SVPVHI,AOML,UNKNOWN,North
2018-06-02T06:30:14Z,1527921014,2018,6,30,153.271,153.271,59.6726,-22.2478,-999.00,8.65,-999.0,no,yes,no,300234065513810,SVPVHI,AOML,UNKNOWN,North
2018-06-02T07:00:28Z,1527922829,2018,7,0,153.292,153.292,59.6736,-22.247,-999.00,8.67,-999.0,no,yes,no,300234065513810,SVPVHI,AOML,UNKNOWN,North
2018-06-02T07:29:16Z,1527924557,2018,7,30,153.312,153.312,59.6748,-22.2456,-999.00,8.68,-999.0,no,yes,no,300234065513810,SVPVHI,AOML,UNKNOWN,North
2018-06-02T07:59:31Z,1527926371,2018,8,0,153.333,153.333,59.6758,-22.2442,-999.00,8.67,-999.0,no,yes,no,300234065513810,SVPVHI,AOML,UNKNOWN,North
2018-06-02T08:29:45Z,1527928186,2018,8,30,153.354,153.354,59.677,-22.2414,-999.00,8.67,-999.0,no,yes,no,300234065513810,SVPVHI,AOML,UNKNOWN,North
2018-06-02T09:00:00Z,1527930000,2018,9,0,153.375,153.375,59.678,-22.2374,-999.00,8.67,-999.0,no,yes,no,300234065513810,SVPVHI,AOML,UNKNOWN,North
2018-06-02T09:30:14Z,1527931814,2018,9,30,153.396,153.396,59.6786,-22.2326,-999.00,8.68,-999.0,no,yes,no,300234065513810,SVPVHI,AOML,UNKNOWN,North
2018-06-02T10:00:28Z,1527933629,2018,10,0,153.417,153.417,59.6784,-22.2278,-999.00,8.71,-999.0,no,yes,no,300234065513810,SVPVHI,AOML,UNKNOWN,North
2018-06-02T10:30:43Z,1527935443,2018,10,30,153.438,153.438,59.6778,-22.222,-999.00,8.73,-999.0,no,yes,no,300234065513810,SVPVHI,AOML,UNKNOWN,North
2018-06-02T10:59:31Z,1527937171,2018,11,0,153.458,153.458,59.6766,-22.2168,-999.00,8.77,-999.0,no,yes,no,300234065513810,SVPVHI,AOML,UNKNOWN,North
2018-06-02T11:29:45Z,1527938986,2018,11,30,153.479,153.479,59.6754,-22.2128,-999.00,8.83,-999.0,no,yes,no,300234065513810,SVPVHI,AOML,UNKNOWN,North
2018-06-02T12:00:00Z,1527940800,2018,12,0,153.5,153.5,59.6742,-22.209,-999.00,8.87,-999.0,no,yes,no,300234065513810,SVPVHI,AOML,UNKNOWN,North
2018-06-02T12:30:14Z,1527942614,2018,12,30,153.521,153.521,59.673,-22.2054,-999.00,8.97,-999.0,no,yes,no,300234065513810,SVPVHI,AOML,UNKNOWN,North
2018-06-02T13:00:28Z,1527944429,2018,13,0,153.542,153.542,59.6718,-22.202,-999.00,9.04,-999.0,no,yes,no,300234065513810,SVPVHI,AOML,UNKNOWN,North
2018-06-02T13:29:16Z,1527946157,2018,13,30,153.562,153.562,59.6704,-22.199,-999.00,9.16,-999.0,no,yes,no,300234065513810,SVPVHI,AOML,UNKNOWN,North
2018-06-02T13:59:31Z,1527947971,2018,14,0,153.583,153.583,59.6692,-22.196,-999.00,9.33,-999.0,no,yes,no,300234065513810,SVPVHI,AOML,UNKNOWN,North
2018-06-02T14:29:45Z,1527949786,2018,14,30,153.604,153.604,59.668,-22.1924,-999.00,9.19,-999.0,no,yes,no,300234065513810,SVPVHI,AOML,UNKNOWN,North
2018-06-02T15:00:00Z,1527951600,2018,15,0,153.625,153.625,59.667,-22.1886,-999.00,9.3,-999.0,no,yes,no,300234065513810,SVPVHI,AOML,UNKNOWN,North
2018-06-02T15:30:14Z,1527953414,2018,15,30,153.646,153.646,59.6662,-22.1856,-999.00,9.36,-999.0,no,yes,no,300234065513810,SVPVHI,AOML,UNKNOWN,North
2018-06-02T16:00:28Z,1527955229,2018,16,0,153.667,153.667,59.6658,-22.1822,-999.00,9.42,-999.0,no,yes,no,300234065513810,SVPVHI,AOML,UNKNOWN,North
2018-06-02T16:30:43Z,1527957043,2018,16,30,153.688,153.688,59.6656,-22.1796,-999.00,9.35,-999.0,no,yes,no,300234065513810,SVPVHI,AOML,UNKNOWN,North
2018-06-02T16:59:31Z,1527958771,2018,17,0,153.708,153.708,59.6658,-22.1776,-999.00,9.39,-999.0,no,yes,no,300234065513810,SVPVHI,AOML,UNKNOWN,North
2018-06-02T17:29:45Z,1527960586,2018,17,30,153.729,153.729,59.6666,-22.1752,-999.00,9.41,-999.0,no,yes,no,300234065513810,SVPVHI,AOML,UNKNOWN,North
2018-06-02T18:00:00Z,1527962400,2018,18,0,153.75,153.75,59.6678,-22.1718,-999.00,9.39,-999.0,no,yes,no,300234065513810,SVPVHI,AOML,UNKNOWN,North
2018-06-02T18:30:14Z,1527964214,2018,18,30,153.771,153.771,59.6692,-22.1674,-999.00,9.38,-999.0,no,yes,no,300234065513810,SVPVHI,AOML,UNKNOWN,North
2018-06-02T19:00:28Z,1527966029,2018,19,0,153.792,153.792,59.6706,-22.1618,-999.00,9.35,-999.0,no,yes,no,300234065513810,SVPVHI,AOML,UNKNOWN,North
2018-06-02T19:29:16Z,1527967757,2018,19,30,153.812,153.812,59.6718,-22.1562,-999.00,9.34,-999.0,no,yes,no,300234065513810,SVPVHI,AOML,UNKNOWN,North
2018-06-02T19:59:31Z,1527969571,2018,20,0,153.833,153.833,59.6728,-22.1502,-999.00,9.31,-999.0,no,yes,no,300234065513810,SVPVHI,AOML,UNKNOWN,North
2018-06-02T20:29:45Z,1527971386,2018,20,30,153.854,153.854,59.6736,-22.1442,-999.00,9.31,-999.0,no,yes,no,300234065513810,SVPVHI,AOML,UNKNOWN,North
2018-06-02T21:00:00Z,1527973200,2018,21,0,153.875,153.875,59.6742,-22.1374,-999.00,9.25,-999.0,no,yes,no,300234065513810,SVPVHI,AOML,UNKNOWN,North
2018-06-02T21:30:14Z,1527975014,2018,21,30,153.896,153.896,59.6748,-22.1304,-999.00,9.24,-999.0,no,yes,no,300234065513810,SVPVHI,AOML,UNKNOWN,North
2018-06-02T22:00:28Z,1527976829,2018,22,0,153.917,153.917,59.6748,-22.1234,-999.00,9.21,-999.0,no,yes,no,300234065513810,SVPVHI,AOML,UNKNOWN,North
2018-06-02T22:30:43Z,1527978643,2018,22,30,153.938,153.938,59.6742,-22.117,-999.00,9.22,-999.0,no,yes,no,300234065513810,SVPVHI,AOML,UNKNOWN,North
2018-06-02T22:59:31Z,1527980371,2018,23,0,153.958,153.958,59.6736,-22.1102,-999.00,9.17,-999.0,no,yes,no,300234065513810,SVPVHI,AOML,UNKNOWN,North
2018-06-02T23:29:45Z,1527982186,2018,23,30,153.979,153.979,59.6724,-22.1038,-999.00,9.18,-999.0,no,yes,no,300234065513810,SVPVHI,AOML,UNKNOWN,North
2018-06-03T00:00:00Z,1527984000,2018,0,0,154.0,154.0,59.6706,-22.0972,-999.00,9.17,-999.0,no,yes,no,300234065513810,SVPVHI,AOML,UNKNOWN,North
2018-06-03T00:30:14Z,1527985814,2018,0,30,154.021,154.021,59.668,-22.0912,-999.00,9.14,-999.0,no,yes,no,300234065513810,SVPVHI,AOML,UNKNOWN,North
2018-06-03T01:00:28Z,1527987629,2018,1,0,154.042,154.042,59.6658,-22.0862,-999.00,9.15,-999.0,no,yes,no,300234065513810,SVPVHI,AOML,UNKNOWN,North
2018-06-03T01:29:16Z,1527989357,2018,1,30,154.062,154.062,59.6638,-22.0818,-999.00,9.13,-999.0,no,yes,no,300234065513810,SVPVHI,AOML,UNKNOWN,North
2018-06-03T01:59:31Z,1527991171,2018,2,0,154.083,154.083,59.6618,-22.078,-999.00,9.11,-999.0,no,yes,no,300234065513810,SVPVHI,AOML,UNKNOWN,North
2018-06-03T02:29:45Z,1527992986,2018,2,30,154.104,154.104,59.6602,-22.0758,-999.00,9.1,-999.0,no,yes,no,300234065513810,SVPVHI,AOML,UNKNOWN,North
2018-06-03T03:00:00Z,1527994800,2018,3,0,154.125,154.125,59.6594,-22.0736,-999.00,9.25,-999.0,no,yes,no,300234065513810,SVPVHI,AOML,UNKNOWN,North
2018-06-03T03:30:14Z,1527996614,2018,3,30,154.146,154.146,59.659,-22.0708,-999.00,9.23,-999.0,no,yes,no,300234065513810,SVPVHI,AOML,UNKNOWN,North
2018-06-03T04:00:28Z,1527998429,2018,4,0,154.167,154.167,59.6592,-22.0676,-999.00,9.23,-999.0,no,yes,no,300234065513810,SVPVHI,AOML,UNKNOWN,North
2018-06-03T04:30:43Z,1528000243,2018,4,30,154.188,154.188,59.66,-22.0642,-999.00,9.21,-999.0,no,yes,no,300234065513810,SVPVHI,AOML,UNKNOWN,North
2018-06-03T04:59:31Z,1528001971,2018,5,0,154.208,154.208,59.6614,-22.0604,-999.00,9.18,-999.0,no,yes,no,300234065513810,SVPVHI,AOML,UNKNOWN,North
2018-06-03T05:29:45Z,1528003786,2018,5,30,154.229,154.229,59.6632,-22.055,-999.00,9.22,-999.0,no,yes,no,300234065513810,SVPVHI,AOML,UNKNOWN,North
2018-06-03T06:00:00Z,1528005600,2018,6,0,154.25,154.25,59.6654,-22.0482,-999.00,9.22,-999.0,no,yes,no,300234065513810,SVPVHI,AOML,UNKNOWN,North
2018-06-03T06:30:14Z,1528007414,2018,6,30,154.271,154.271,59.6676,-22.0392,-999.00,9.2,-999.0,no,yes,no,300234065513810,SVPVHI,AOML,UNKNOWN,North
2018-06-03T07:00:28Z,1528009229,2018,7,0,154.292,154.292,59.669,-22.0296,-999.00,9.21,-999.0,no,yes,no,300234065513810,SVPVHI,AOML,UNKNOWN,North
2018-06-03T07:29:16Z,1528010957,2018,7,30,154.312,154.312,59.6702,-22.0202,-999.00,9.24,-999.0,no,yes,no,300234065513810,SVPVHI,AOML,UNKNOWN,North
2018-06-03T07:59:31Z,1528012771,2018,8,0,154.333,154.333,59.6712,-22.0122,-999.00,9.27,-999.0,no,yes,no,300234065513810,SVPVHI,AOML,UNKNOWN,North
2018-06-03T08:29:45Z,1528014586,2018,8,30,154.354,154.354,59.6726,-22.0046,-999.00,9.27,-999.0,no,yes,no,300234065513810,SVPVHI,AOML,UNKNOWN,North
2018-06-03T09:00:00Z,1528016400,2018,9,0,154.375,154.375,59.6738,-21.997,-999.00,9.26,-999.0,no,yes,no,300234065513810,SVPVHI,AOML,UNKNOWN,North
2018-06-03T09:30:14Z,1528018214,2018,9,30,154.396,154.396,59.6748,-21.9894,-999.00,9.25,-999.0,no,yes,no,300234065513810,SVPVHI,AOML,UNKNOWN,North
2018-06-03T10:00:28Z,1528020029,2018,10,0,154.417,154.417,59.6756,-21.9822,-999.00,9.29,-999.0,no,yes,no,300234065513810,SVPVHI,AOML,UNKNOWN,North
2018-06-03T10:30:43Z,1528021843,2018,10,30,154.438,154.438,59.6764,-21.9756,-999.00,9.33,-999.0,no,yes,no,300234065513810,SVPVHI,AOML,UNKNOWN,North
2018-06-03T10:59:31Z,1528023571,2018,11,0,154.458,154.458,59.677,-21.9696,-999.00,9.37,-999.0,no,yes,no,300234065513810,SVPVHI,AOML,UNKNOWN,North
2018-06-03T11:29:45Z,1528025386,2018,11,30,154.479,154.479,59.6776,-21.9632,-999.00,9.4,-999.0,no,yes,no,300234065513810,SVPVHI,AOML,UNKNOWN,North
2018-06-03T12:00:00Z,1528027200,2018,12,0,154.5,154.5,59.6782,-21.9574,-999.00,9.5,-999.0,no,yes,no,300234065513810,SVPVHI,AOML,UNKNOWN,North
2018-06-03T12:30:14Z,1528029014,2018,12,30,154.521,154.521,59.6792,-21.952,-999.00,9.58,-999.0,no,yes,no,300234065513810,SVPVHI,AOML,UNKNOWN,North
2018-06-03T13:00:28Z,1528030829,2018,13,0,154.542,154.542,59.6804,-21.947,-999.00,9.67,-999.0,no,yes,no,300234065513810,SVPVHI,AOML,UNKNOWN,North
2018-06-03T13:29:16Z,1528032557,2018,13,30,154.562,154.562,59.6816,-21.9414,-999.00,9.5,-999.0,no,yes,no,300234065513810,SVPVHI,AOML,UNKNOWN,North
2018-06-03T13:59:31Z,1528034371,2018,14,0,154.583,154.583,59.6828,-21.9362,-999.00,9.65,-999.0,no,yes,no,300234065513810,SVPVHI,AOML,UNKNOWN,North
2018-06-03T14:29:45Z,1528036186,2018,14,30,154.604,154.604,59.6844,-21.9316,-999.00,9.73,-999.0,no,yes,no,300234065513810,SVPVHI,AOML,UNKNOWN,North
2018-06-03T15:00:00Z,1528038000,2018,15,0,154.625,154.625,59.6862,-21.9278,-999.00,9.99,-999.0,no,yes,no,300234065513810,SVPVHI,AOML,UNKNOWN,North
2018-06-03T15:30:14Z,1528039814,2018,15,30,154.646,154.646,59.6886,-21.9248,-999.00,10.26,-999.0,no,yes,no,300234065513810,SVPVHI,AOML,UNKNOWN,North
2018-06-03T16:00:28Z,1528041629,2018,16,0,154.667,154.667,59.6914,-21.9216,-999.00,10.32,-999.0,no,yes,no,300234065513810,SVPVHI,AOML,UNKNOWN,North
2018-06-03T16:30:43Z,1528043443,2018,16,30,154.688,154.688,59.6942,-21.919,-999.00,10.22,-999.0,no,yes,no,300234065513810,SVPVHI,AOML,UNKNOWN,North
2018-06-03T16:59:31Z,1528045171,2018,17,0,154.708,154.708,59.6974,-21.917,-999.00,10.24,-999.0,no,yes,no,300234065513810,SVPVHI,AOML,UNKNOWN,North
2018-06-03T17:29:45Z,1528046986,2018,17,30,154.729,154.729,59.701,-21.9154,-999.00,10.28,-999.0,no,yes,no,300234065513810,SVPVHI,AOML,UNKNOWN,North
2018-06-03T18:00:00Z,1528048800,2018,18,0,154.75,154.75,59.705,-21.9134,-999.00,10.29,-999.0,no,yes,no,300234065513810,SVPVHI,AOML,UNKNOWN,North
2018-06-03T18:30:14Z,1528050614,2018,18,30,154.771,154.771,59.7096,-21.9112,-999.00,10.26,-999.0,no,yes,no,300234065513810,SVPVHI,AOML,UNKNOWN,North
2018-06-03T19:00:28Z,1528052429,2018,19,0,154.792,154.792,59.7142,-21.908,-999.00,10.16,-999.0,no,yes,no,300234065513810,SVPVHI,AOML,UNKNOWN,North
2018-06-03T19:29:16Z,1528054157,2018,19,30,154.812,154.812,59.7198,-21.9058,-999.00,10.26,-999.0,no,yes,no,300234065513810,SVPVHI,AOML,UNKNOWN,North
2018-06-03T19:59:31Z,1528055971,2018,20,0,154.833,154.833,59.725,-21.9032,-999.00,10.23,-999.0,no,yes,no,300234065513810,SVPVHI,AOML,UNKNOWN,North
2018-06-03T20:29:45Z,1528057786,2018,20,30,154.854,154.854,59.7308,-21.9016,-999.00,10.17,-999.0,no,yes,no,300234065513810,SVPVHI,AOML,UNKNOWN,North
2018-06-03T21:00:00Z,1528059600,2018,21,0,154.875,154.875,59.7362,-21.8964,-999.00,10.11,-999.0,no,yes,no,300234065513810,SVPVHI,AOML,UNKNOWN,North
2018-06-03T21:30:14Z,1528061414,2018,21,30,154.896,154.896,59.7412,-21.8916,-999.00,10.09,-999.0,no,yes,no,300234065513810,SVPVHI,AOML,UNKNOWN,North
2018-06-03T22:00:28Z,1528063229,2018,22,0,154.917,154.917,59.746,-21.8862,-999.00,10.03,-999.0,no,yes,no,300234065513810,SVPVHI,AOML,UNKNOWN,North
2018-06-03T22:30:43Z,1528065043,2018,22,30,154.938,154.938,59.7508,-21.8812,-999.00,9.96,-999.0,no,yes,no,300234065513810,SVPVHI,AOML,UNKNOWN,North
2018-06-03T22:59:31Z,1528066771,2018,23,0,154.958,154.958,59.7554,-21.8758,-999.00,9.99,-999.0,no,yes,no,300234065513810,SVPVHI,AOML,UNKNOWN,North
2018-06-03T23:29:45Z,1528068586,2018,23,30,154.979,154.979,59.7596,-21.872,-999.00,9.94,-999.0,no,yes,no,300234065513810,SVPVHI,AOML,UNKNOWN,North
2018-06-04T00:00:00Z,1528070400,2018,0,0,155.0,155.0,59.7638,-21.8674,-999.00,9.93,-999.0,no,yes,no,300234065513810,SVPVHI,AOML,UNKNOWN,North
2018-06-04T00:30:14Z,1528072214,2018,0,30,155.021,155.021,59.7678,-21.8628,-999.00,9.87,-999.0,no,yes,no,300234065513810,SVPVHI,AOML,UNKNOWN,North
2018-06-04T01:00:28Z,1528074029,2018,1,0,155.042,155.042,59.7718,-21.8582,-999.00,9.86,-999.0,no,yes,no,300234065513810,SVPVHI,AOML,UNKNOWN,North
2018-06-04T01:29:16Z,1528075757,2018,1,30,155.062,155.062,59.775,-21.8534,-999.00,9.87,-999.0,no,yes,no,300234065513810,SVPVHI,AOML,UNKNOWN,North
2018-06-04T01:59:31Z,1528077571,2018,2,0,155.083,155.083,59.7786,-21.8496,-999.00,9.86,-999.0,no,yes,no,300234065513810,SVPVHI,AOML,UNKNOWN,North
2018-06-04T02:29:45Z,1528079386,2018,2,30,155.104,155.104,59.7824,-21.8468,-999.00,9.84,-999.0,no,yes,no,300234065513810,SVPVHI,AOML,UNKNOWN,North
2018-06-04T03:00:00Z,1528081200,2018,3,0,155.125,155.125,59.786,-21.8442,-999.00,9.84,-999.0,no,yes,no,300234065513810,SVPVHI,AOML,UNKNOWN,North
2018-06-04T03:30:14Z,1528083014,2018,3,30,155.146,155.146,59.789,-21.842,-999.00,9.83,-999.0,no,yes,no,300234065513810,SVPVHI,AOML,UNKNOWN,North
2018-06-04T04:00:28Z,1528084829,2018,4,0,155.167,155.167,59.792,-21.8398,-999.00,9.84,-999.0,no,yes,no,300234065513810,SVPVHI,AOML,UNKNOWN,North
2018-06-04T04:30:43Z,1528086643,2018,4,30,155.188,155.188,59.7948,-21.8382,-999.00,9.8,-999.0,no,yes,no,300234065513810,SVPVHI,AOML,UNKNOWN,North
2018-06-04T04:59:31Z,1528088371,2018,5,0,155.208,155.208,59.7974,-21.8364,-999.00,9.75,-999.0,no,yes,no,300234065513810,SVPVHI,AOML,UNKNOWN,North
2018-06-04T05:29:45Z,1528090186,2018,5,30,155.229,155.229,59.8002,-21.8348,-999.00,9.73,-999.0,no,yes,no,300234065513810,SVPVHI,AOML,UNKNOWN,North
2018-06-04T06:00:00Z,1528092000,2018,6,0,155.25,155.25,59.8034,-21.835,-999.00,9.7,-999.0,no,yes,no,300234065513810,SVPVHI,AOML,UNKNOWN,North
2018-06-04T06:30:14Z,1528093814,2018,6,30,155.271,155.271,59.807,-21.8358,-999.00,9.68,-999.0,no,yes,no,300234065513810,SVPVHI,AOML,UNKNOWN,North
2018-06-04T07:00:28Z,1528095629,2018,7,0,155.292,155.292,59.8112,-21.8364,-999.00,9.63,-999.0,no,yes,no,300234065513810,SVPVHI,AOML,UNKNOWN,North
2018-06-04T07:29:16Z,1528097357,2018,7,30,155.312,155.312,59.8156,-21.8388,-999.00,9.63,-999.0,no,yes,no,300234065513810,SVPVHI,AOML,UNKNOWN,North
2018-06-04T07:59:31Z,1528099171,2018,8,0,155.333,155.333,59.8204,-21.8408,-999.00,9.63,-999.0,no,yes,no,300234065513810,SVPVHI,AOML,UNKNOWN,North
2018-06-04T08:29:45Z,1528100986,2018,8,30,155.354,155.354,59.8252,-21.8438,-999.00,9.63,-999.0,no,yes,no,300234065513810,SVPVHI,AOML,UNKNOWN,North
2018-06-04T09:00:00Z,1528102800,2018,9,0,155.375,155.375,59.8304,-21.8472,-999.00,9.56,-999.0,no,yes,no,300234065513810,SVPVHI,AOML,UNKNOWN,North
2018-06-04T09:30:14Z,1528104614,2018,9,30,155.396,155.396,59.836,-21.8502,-999.00,9.57,-999.0,no,yes,no,300234065513810,SVPVHI,AOML,UNKNOWN,North
2018-06-04T10:00:28Z,1528106429,2018,10,0,155.417,155.417,59.8416,-21.8526,-999.00,9.56,-999.0,no,yes,no,300234065513810,SVPVHI,AOML,UNKNOWN,North
2018-06-04T10:30:43Z,1528108243,2018,10,30,155.438,155.438,59.8462,-21.8546,-999.00,9.53,-999.0,no,yes,no,300234065513810,SVPVHI,AOML,UNKNOWN,North
2018-06-04T10:59:31Z,1528109971,2018,11,0,155.458,155.458,59.8494,-21.8558,-999.00,9.55,-999.0,no,yes,no,300234065513810,SVPVHI,AOML,UNKNOWN,North
2018-06-04T11:29:45Z,1528111786,2018,11,30,155.479,155.479,59.8514,-21.8564,-999.00,9.57,-999.0,no,yes,no,300234065513810,SVPVHI,AOML,UNKNOWN,North
2018-06-04T12:00:00Z,1528113600,2018,12,0,155.5,155.5,59.8528,-21.857,-999.00,9.58,-999.0,no,yes,no,300234065513810,SVPVHI,AOML,UNKNOWN,North
2018-06-04T12:30:14Z,1528115414,2018,12,30,155.521,155.521,59.8538,-21.8578,-999.00,9.61,-999.0,no,yes,no,300234065513810,SVPVHI,AOML,UNKNOWN,North
2018-06-04T13:00:28Z,1528117229,2018,13,0,155.542,155.542,59.8544,-21.859,-999.00,9.62,-999.0,no,yes,no,300234065513810,SVPVHI,AOML,UNKNOWN,North
2018-06-04T13:29:16Z,1528118957,2018,13,30,155.562,155.562,59.855,-21.8606,-999.00,9.64,-999.0,no,yes,no,300234065513810,SVPVHI,AOML,UNKNOWN,North
2018-06-04T13:59:31Z,1528120771,2018,14,0,155.583,155.583,59.8558,-21.8614,-999.00,9.59,-999.0,no,yes,no,300234065513810,SVPVHI,AOML,UNKNOWN,North
2018-06-04T14:29:45Z,1528122586,2018,14,30,155.604,155.604,59.8566,-21.861,-999.00,9.68,-999.0,no,yes,no,300234065513810,SVPVHI,AOML,UNKNOWN,North
2018-06-04T15:00:00Z,1528124400,2018,15,0,155.625,155.625,59.8572,-21.861,-999.00,9.71,-999.0,no,yes,no,300234065513810,SVPVHI,AOML,UNKNOWN,North
2018-06-04T15:30:14Z,1528126214,2018,15,30,155.646,155.646,59.8576,-21.8622,-999.00,9.7,-999.0,no,yes,no,300234065513810,SVPVHI,AOML,UNKNOWN,North
2018-06-04T16:00:28Z,1528128029,2018,16,0,155.667,155.667,59.8592,-21.8636,-999.00,9.65,-999.0,no,yes,no,300234065513810,SVPVHI,AOML,UNKNOWN,North
2018-06-04T16:30:43Z,1528129843,2018,16,30,155.688,155.688,59.8606,-21.8648,-999.00,9.6,-999.0,no,yes,no,300234065513810,SVPVHI,AOML,UNKNOWN,North
2018-06-04T16:59:31Z,1528131571,2018,17,0,155.708,155.708,59.8624,-21.8654,-999.00,9.68,-999.0,no,yes,no,300234065513810,SVPVHI,AOML,UNKNOWN,North
2018-06-04T17:29:45Z,1528133386,2018,17,30,155.729,155.729,59.8642,-21.8674,-999.00,9.65,-999.0,no,yes,no,300234065513810,SVPVHI,AOML,UNKNOWN,North
2018-06-04T18:00:00Z,1528135200,2018,18,0,155.75,155.75,59.8662,-21.87,-999.00,9.56,-999.0,no,yes,no,300234065513810,SVPVHI,AOML,UNKNOWN,North
2018-06-04T18:30:14Z,1528137014,2018,18,30,155.771,155.771,59.8686,-21.8724,-999.00,9.56,-999.0,no,yes,no,300234065513810,SVPVHI,AOML,UNKNOWN,North
2018-06-04T19:00:28Z,1528138829,2018,19,0,155.792,155.792,59.8718,-21.873,-999.00,9.52,-999.0,no,yes,no,300234065513810,SVPVHI,AOML,UNKNOWN,North
2018-06-04T19:29:16Z,1528140557,2018,19,30,155.812,155.812,59.874,-21.8738,-999.00,9.51,-999.0,no,yes,no,300234065513810,SVPVHI,AOML,UNKNOWN,North
2018-06-04T19:59:31Z,1528142371,2018,20,0,155.833,155.833,59.8762,-21.8758,-999.00,9.51,-999.0,no,yes,no,300234065513810,SVPVHI,AOML,UNKNOWN,North
2018-06-04T20:29:45Z,1528144186,2018,20,30,155.854,155.854,59.8792,-21.8778,-999.00,9.49,-999.0,no,yes,no,300234065513810,SVPVHI,AOML,UNKNOWN,North
2018-06-04T21:00:00Z,1528146000,2018,21,0,155.875,155.875,59.8822,-21.8798,-999.00,9.46,-999.0,no,yes,no,300234065513810,SVPVHI,AOML,UNKNOWN,North
2018-06-04T21:30:14Z,1528147814,2018,21,30,155.896,155.896,59.8856,-21.8824,-999.00,9.44,-999.0,no,yes,no,300234065513810,SVPVHI,AOML,UNKNOWN,North
2018-06-04T22:00:28Z,1528149629,2018,22,0,155.917,155.917,59.8898,-21.8844,-999.00,9.39,-999.0,no,yes,no,300234065513810,SVPVHI,AOML,UNKNOWN,North
2018-06-04T22:30:43Z,1528151443,2018,22,30,155.938,155.938,59.8946,-21.8856,-999.00,9.4,-999.0,no,yes,no,300234065513810,SVPVHI,AOML,UNKNOWN,North
2018-06-04T22:59:31Z,1528153171,2018,23,0,155.958,155.958,59.899,-21.886,-999.00,9.4,-999.0,no,yes,no,300234065513810,SVPVHI,AOML,UNKNOWN,North
2018-06-04T23:29:45Z,1528154986,2018,23,30,155.979,155.979,59.903,-21.8854,-999.00,9.42,-999.0,no,yes,no,300234065513810,SVPVHI,AOML,UNKNOWN,North
2018-06-05T00:00:00Z,1528156800,2018,0,0,156.0,156.0,59.9072,-21.884,-999.00,9.46,-999.0,no,yes,no,300234065513810,SVPVHI,AOML,UNKNOWN,North
2018-06-05T00:30:14Z,1528158614,2018,0,30,156.021,156.021,59.9112,-21.8822,-999.00,9.52,-999.0,no,yes,no,300234065513810,SVPVHI,AOML,UNKNOWN,North
2018-06-05T01:00:28Z,1528160429,2018,1,0,156.042,156.042,59.915,-21.8802,-999.00,9.57,-999.0,no,yes,no,300234065513810,SVPVHI,AOML,UNKNOWN,North
2018-06-05T01:29:16Z,1528162157,2018,1,30,156.062,156.062,59.9178,-21.8782,-999.00,9.58,-999.0,no,yes,no,300234065513810,SVPVHI,AOML,UNKNOWN,North
2018-06-05T01:59:31Z,1528163971,2018,2,0,156.083,156.083,59.9206,-21.8766,-999.00,9.59,-999.0,no,yes,no,300234065513810,SVPVHI,AOML,UNKNOWN,North
2018-06-05T02:29:45Z,1528165786,2018,2,30,156.104,156.104,59.9236,-21.8756,-999.00,9.58,-999.0,no,yes,no,300234065513810,SVPVHI,AOML,UNKNOWN,North
2018-06-05T03:00:00Z,1528167600,2018,3,0,156.125,156.125,59.9264,-21.8734,-999.00,9.58,-999.0,no,yes,no,300234065513810,SVPVHI,AOML,UNKNOWN,North
2018-06-05T03:30:14Z,1528169414,2018,3,30,156.146,156.146,59.928,-21.8718,-999.00,9.57,-999.0,no,yes,no,300234065513810,SVPVHI,AOML,UNKNOWN,North
2018-06-05T04:00:28Z,1528171229,2018,4,0,156.167,156.167,59.93,-21.8704,-999.00,9.57,-999.0,no,yes,no,300234065513810,SVPVHI,AOML,UNKNOWN,North
2018-06-05T04:30:43Z,1528173043,2018,4,30,156.188,156.188,59.9318,-21.8698,-999.00,9.56,-999.0,no,yes,no,300234065513810,SVPVHI,AOML,UNKNOWN,North
2018-06-05T04:59:31Z,1528174771,2018,5,0,156.208,156.208,59.9336,-21.8704,-999.00,9.57,-999.0,no,yes,no,300234065513810,SVPVHI,AOML,UNKNOWN,North
2018-06-05T05:29:45Z,1528176586,2018,5,30,156.229,156.229,59.935,-21.8722,-999.00,9.56,-999.0,no,yes,no,300234065513810,SVPVHI,AOML,UNKNOWN,North
2018-06-05T06:00:00Z,1528178400,2018,6,0,156.25,156.25,59.937,-21.8738,-999.00,9.58,-999.0,no,yes,no,300234065513810,SVPVHI,AOML,UNKNOWN,North
2018-06-05T06:30:14Z,1528180214,2018,6,30,156.271,156.271,59.9396,-21.8758,-999.00,9.58,-999.0,no,yes,no,300234065513810,SVPVHI,AOML,UNKNOWN,North
2018-06-05T07:00:28Z,1528182029,2018,7,0,156.292,156.292,59.9422,-21.8788,-999.00,9.59,-999.0,no,yes,no,300234065513810,SVPVHI,AOML,UNKNOWN,North
2018-06-05T07:29:16Z,1528183757,2018,7,30,156.312,156.312,59.9458,-21.8826,-999.00,9.58,-999.0,no,yes,no,300234065513810,SVPVHI,AOML,UNKNOWN,North
2018-06-05T07:59:31Z,1528185571,2018,8,0,156.333,156.333,59.9502,-21.886,-999.00,9.6,-999.0,no,yes,no,300234065513810,SVPVHI,AOML,UNKNOWN,North
2018-06-05T08:29:45Z,1528187386,2018,8,30,156.354,156.354,59.9546,-21.8882,-999.00,9.62,-999.0,no,yes,no,300234065513810,SVPVHI,AOML,UNKNOWN,North
2018-06-05T09:00:00Z,1528189200,2018,9,0,156.375,156.375,59.96,-21.8902,-999.00,9.65,-999.0,no,yes,no,300234065513810,SVPVHI,AOML,UNKNOWN,North